Temp
7 7 8 8 9 9 8 8 9 9 10 10 10 11 11 11 11 12 12 12 12 13 13 13 13 13 13 13 13 13 13 12 12 11 11 11 11 11 11 11 10 10 10 10 10 9 9 9 9 9 9 9 8 8 8 8 8 7 7 7 7 7 7 6 6 6 6 6 5 5 5 5 5 5 4 4 4 4 4 4 4 4 4 4 4 4
7 7 7 8 8 8 8 8 8 9 9 10 10 10 11 11 11 11 11 12 12 12 12 13 13 12 12 12 12 12 12 12 11 11 11 11 11 11 10 10 10 10 10 9 9 9 9 9 9 9 8 8 8 8 8 8 7 7 7 7 7 6 6 6 6 6 6 5 5 5 5 5 4 4 4 4 4 4 4 4 4 4 4 4 4 4
6 6 7 7 8 8 8 8 8 9 9 9 10 10 10 10 11 11 11 11 11 11 12 12 12 12 11 11 11 11 11 11 11 11 11 11 11 11 11 11 10 10 10 9 9 9 9 9 8 8 8 8 8 8 7 7 7 7 7 6 6 6 6 6 6 5 5 5 5 5 5 5 4 4 4 4 4 4 4 4 4 4 4 4 4 4
6 6 6 6 7 7 7 7 8 8 9 9 9 9 9 10 10 10 10 10 10 10 10 11 11 11 11 10 10 10 10 11 11 11 12 12 12 11 11 11 10 10 10 9 9 9 9 8 8 8 8 8 8 7 7 7 7 7 6 6 6 6 6 6 5 5 5 5 4 5 5 5 4 4 4 3 3 3 3 3 3 3 3 4 4 4
5 6 6 6 6 6 7 7 7 8 8 9 9 9 9 9 9 9 9 9 9 9 9 10 10 10 10 10 10 10 10 11 11 11 11 11 11 11 11 11 10 10 10 9 9 9 9 8 8 8 8 7 7 7 7 7 7 6 6 6 6 6 6 5 5 5 5 4 5 5 5 5 4 4 3 3 3 3 3 3 3 3 3 3 4 4
5 5 6 6 6 5 6 6 7 7 7 8 8 8 8 8 8 8 8 8 8 8 8 9 9 10 10 10 10 10 10 11 11 11 11 11 11 11 10 10 10 10 9 9 9 9 8 8 8 8 7 7 7 7 7 7 6 6 6 6 6 6 6 5 5 5 5 4 5 5 5 5 4 4 3 3 3 3 3 3 3 3 3 3 3 3
5 5 5 5 5 5 5 5 6 6 7 7 7 7 7 7 7 7 7 7 7 8 8 8 8 9 9 9 10 10 10 10 10 11 11 11 10 10 10 10 9 9 9 9 8 8 8 8 8 7 7 7 7 7 6 6 6 6 6 6 6 6 5 5 5 5 5 4 5 5 5 4 4 3 3 3 2 2 3 3 3 3 3 3 3 3
5 4 5 5 4 4 5 5 5 6 6 6 6 6 6 6 6 6 6 7 7 7 7 7 7 8 8 9 9 9 9 9 10 10 10 10 10 9 9 9 9 8 8 8 8 8 8 8 7 7 7 7 7 6 6 6 6 6 6 6 6 6 5 5 5 5 4 4 4 4 4 4 4 3 3 2 2 2 2 2 2 3 3 3 3 3
4 4 4 4 4 4 4 4 4 5 5 5 5 5 5 5 5 5 5 6 6 6 6 6 7 7 7 8 8 9 9 9 9 9 9 9 9 8 8 8 8 8 8 7 7 7 7 7 7 7 7 6 6 6 6 5 5 5 5 6 5 5 5 5 5 4 4 4 4 4 4 4 4 3 3 3 2 2 2 2 2 2 3 3 3 3
4 4 4 4 4 4 4 4 4 4 5 5 5 5 4 4 4 4 4 4 4 5 5 6 6 6 6 7 7 8 8 8 8 8 9 8 8 8 8 8 7 7 7 7 7 7 7 7 7 6 6 6 6 5 5 5 5 5 5 5 5 5 5 5 4 4 4 4 4 4 4 3 3 3 3 3 3 2 2 2 2 2 2 2 2 2
4 4 3 3 4 4 4 4 4 4 4 4 4 4 4 4 4 4 4 3 4 4 4 4 5 5 5 5 6 7 7 7 7 7 7 7 7 7 7 7 7 6 6 6 6 6 6 6 6 6 5 5 5 5 4 4 4 5 5 5 5 5 5 4 4 4 4 4 3 3 3 3 3 3 3 3 3 2 2 2 2 2 3 3 2 2
4 4 3 3 3 3 3 3 3 3 4 4 4 4 4 4 4 4 4 3 3 4 4 4 4 4 4 4 5 5 6 6 6 6 6 6 6 6 6 6 6 6 5 5 5 5 5 5 5 5 5 5 4 4 4 4 4 5 5 5 5 5 4 4 4 4 4 3 3 3 3 3 3 3 3 3 3 2 2 2 2 3 3 3 3 2
4 4 3 3 3 3 3 3 3 3 3 4 4 4 4 4 4 4 4 3 3 4 4 4 4 4 4 4 4 5 6 6 6 6 6 6 6 6 6 6 5 5 5 5 5 5 5 5 5 4 4 4 4 4 4 4 4 5 5 5 5 4 4 4 4 4 3 3 3 3 3 3 3 3 3 3 2 2 2 2 2 2 3 3 3 3
4 4 3 3 3 3 3 3 3 3 3 4 4 4 4 4 4 4 3 3 3 3 4 4 4 4 4 4 5 5 6 6 6 6 6 6 6 6 6 6 5 5 5 4 4 4 4 4 4 4 4 4 4 4 4 4 4 4 4 4 4 4 4 4 4 3 3 3 3 2 2 3 3 3 3 3 2 2 2 2 2 2 2 2 2 2
4 4 3 3 3 3 3 3 3 3 3 4 4 4 4 4 4 4 3 3 3 3 3 3 3 3 3 4 4 5 5 6 6 6 5 5 5 6 6 5 5 4 4 4 4 3 3 3 3 4 4 4 4 4 4 4 4 4 4 4 4 4 4 4 3 3 3 3 2 2 2 3 3 3 3 2 2 1 1 1 2 2 2 2 2 2
4 4 4 4 3 3 3 3 3 3 3 4 4 4 3 3 3 3 3 2 2 2 2 2 2 2 2 3 4 4 5 5 6 5 5 4 4 5 5 5 4 4 3 3 3 3 3 3 3 3 3 3 3 3 3 3 3 3 3 3 3 3 3 3 3 3 3 3 2 2 2 2 3 3 3 2 2 1 1 1 1 2 2 2 2 2
4 4 4 4 4 3 3 3 3 4 4 4 4 4 4 3 3 3 3 2 2 2 2 2 2 2 2 2 3 3 4 4 5 5 4 4 3 4 4 4 4 3 3 3 3 3 3 2 2 2 3 3 3 3 2 2 2 2 2 2 2 2 2 3 3 3 3 2 2 2 2 2 2 3 2 2 1 1 1 1 1 1 2 2 2 2
4 4 4 4 4 3 3 3 3 4 4 4 4 4 4 4 4 3 3 3 2 2 2 3 3 2 2 2 2 3 3 4 4 4 3 3 3 3 3 3 3 3 3 3 2 2 2 2 2 2 2 2 2 2 2 2 2 2 2 2 2 2 2 2 2 2 2 2 2 2 2 2 2 2 2 2 1 1 0 1 1 1 1 1 1 1
4 4 4 4 4 3 3 3 3 4 4 4 4 4 4 4 4 3 3 3 3 3 3 3 3 3 3 2 2 2 3 3 3 3 3 2 2 2 2 2 3 3 3 2 2 2 2 2 2 1 1 1 1 1 1 1 1 1 1 1 1 1 1 1 1 2 2 2 2 2 2 2 2 2 2 2 1 1 0 0 1 1 1 1 1 1
4 4 4 4 4 3 3 3 4 4 4 4 4 4 3 3 3 3 3 3 3 3 3 3 3 3 3 3 3 3 3 3 3 3 2 2 2 2 1 2 2 2 2 2 2 2 2 2 1 1 1 1 1 1 1 1 1 1 1 1 1 1 1 1 1 1 1 1 1 1 1 2 2 2 2 2 1 1 0 0 1 1 1 1 1 1
5 5 5 5 5 4 4 4 4 4 5 5 4 4 3 3 3 3 3 3 3 3 3 3 3 3 3 3 3 3 2 2 2 2 2 1 1 1 1 1 1 2 2 2 2 2 1 1 1 1 1 1 1 1 1 1 1 1 0 0 0 0 0 0 1 1 1 1 1 1 1 1 1 2 2 1 1 1 0 0 0 1 1 1 1 1
6 5 6 6 6 6 6 6 5 5 5 5 4 4 4 3 3 3 3 3 3 3 3 3 3 3 3 3 3 3 2 2 2 2 2 1 1 1 1 1 1 1 1 1 1 1 1 1 1 1 1 1 1 1 1 0 0 0 0 0 0 0 0 1 1 1 0 0 0 1 1 1 1 1 1 1 1 0 0 0 0 0 0 1 1 1
7 7 6 6 7 7 7 7 6 5 5 5 5 5 5 5 4 4 3 3 3 3 3 2 2 3 3 3 3 3 2 2 2 2 2 1 1 1 1 1 1 1 1 1 1 1 1 1 1 1 1 1 1 1 0 0 0 0 0 0 0 0 0 0 0 0 0 0 0 0 1 1 1 1 1 1 0 0 0 0 0 0 0 0 1 1
7 7 7 6 6 6 7 6 6 5 5 5 5 5 5 5 5 5 4 4 3 3 2 2 2 2 2 2 2 2 2 2 2 2 2 1 1 1 1 1 1 1 1 1 1 1 1 1 1 1 1 0 0 0 0 0 0 -0 -0 -0 -0 -0 0 0 0 0 0 0 0 0 0 0 0 0 0 0 0 0 0 -0 -0 -0 0 0 0 0
6 6 6 6 6 6 6 6 6 6 5 5 5 4 4 4 4 4 3 3 3 2 2 2 2 1 1 1 2 2 2 2 2 2 2 2 1 1 1 1 1 1 1 1 1 1 1 1 1 1 0 0 0 0 0 -0 -0 -0 -0 -0 -0 -0 -0 -0 -0 -0 0 0 0 0 0 0 0 0 0 0 0 -0 -0 -0 -0 -0 -0 -0 -0 0
5 5 5 5 6 6 6 6 5 5 5 5 5 4 4 3 3 3 3 2 2 2 2 1 1 1 1 1 1 1 1 1 2 2 2 2 1 1 1 1 1 1 0 0 1 1 0 0 0 0 0 0 0 0 0 -0 -0 -0 -0 -0 -0 -0 -0 -0 -0 -0 -0 -0 -0 0 0 -0 -0 -0 -0 -0 -0 -0 -0 -0 -0 -0 -0 -0 -0 -0
5 5 5 5 5 5 5 5 5 5 5 5 4 4 4 4 3 3 2 2 2 2 2 1 1 1 0 -0 0 0 1 1 1 1 1 1 1 1 0 1 1 1 0 0 0 0 0 0 0 0 0 0 0 0 0 -0 -0 -1 -1 -1 -0 -0 -0 -0 -0 -0 -0 -0 -0 -0 -0 -0 -0 -0 -0 -0 -0 -0 -0 -0 -1 -1 -1 -1 -1 -1
4 4 4 4 4 4 4 4 4 4 4 4 4 4 4 4 3 2 2 2 2 2 2 2 2 1 0 -1 -1 -0 0 1 1 1 1 1 1 1 0 0 0 0 0 0 0 0 -0 -0 0 0 0 0 0 0 0 0 -0 -0 -1 -1 -1 -0 -0 -0 -0 -0 -0 -0 -0 -0 -0 -0 -0 -0 -0 -0 -0 -1 -1 -1 -1 -1 -1 -1 -1 -1
4 4 4 4 4 4 4 4 4 4 4 4 4 4 4 4 3 3 3 2 2 2 1 2 2 2 1 -0 -1 -1 -0 -0 0 1 1 0 0 0 0 0 -0 -0 -0 -0 -1 -1 -1 -1 -0 0 0 0 0 0 0 0 -0 -0 -1 -1 -1 -0 -0 -0 -0 -0 -0 -0 -0 -0 -0 -0 -0 -0 -0 -1 -1 -1 -1 -1 -1 -1 -1 -1 -1 -1
4 4 3 3 3 3 3 3 3 3 3 3 3 3 3 3 4 4 3 3 2 2 2 2 2 2 1 -1 -2 -2 -1 -1 -0 0 0 0 -0 -0 -0 -0 -1 -1 -1 -1 -1 -2 -2 -1 -1 -0 -0 0 0 0 0 0 0 -0 -0 -1 -1 -1 -0 -0 -0 -0 -0 -0 -0 -0 -0 -0 -0 -0 -1 -1 -1 -1 -1 -1 -1 -1 -1 -1 -1 -1
3 3 3 3 3 3 3 3 3 3 3 3 3 3 3 3 3 3 3 3 3 2 2 2 2 1 1 -0 -1 -1 -1 -1 -0 0 0 -0 -0 -0 -0 -1 -1 -1 -1 -1 -1 -2 -2 -1 -1 -0 -0 -0 0 0 0 0 0 -0 -0 -0 -0 -0 -0 -0 -0 -0 -0 -0 -0 -0 -0 -0 -0 -0 -1 -1 -1 -1 -1 -1 -1 -1 -1 -1 -1 -1
3 3 3 3 3 3 3 3 3 3 2 2 2 2 2 2 2 2 3 3 3 2 2 2 1 1 1 1 1 0 -0 0 1 1 0 -0 -0 -0 -0 -0 -1 -2 -1 -1 -0 -1 -1 -1 -1 -1 -1 -0 -0 0 0 0 0 -0 -0 -0 -0 -0 -0 -0 -0 -1 -1 -1 -0 -0 -0 -0 -0 -1 -1 -1 -1 -1 -1 -1 -1 -1 -1 -1 -1 -1
3 3 3 3 3 3 3 3 2 2 2 2 2 2 2 2 2 2 2 2 2 2 2 2 1 1 1 1 1 1 1 1 1 1 1 -0 -0 -1 -1 -1 -1 -2 -2 -1 -1 -0 -0 -0 -1 -1 -1 -1 -0 -0 0 0 0 0 -0 -0 -0 -0 -0 -0 -1 -1 -1 -1 -1 -0 -0 -0 -1 -1 -1 -1 -1 -1 -1 -1 -1 -1 -1 -1 -1 -1
2 2 2 2 2 2 2 2 2 2 2 2 2 2 2 2 2 2 2 2 2 2 2 2 2 1 1 1 0 0 1 1 1 1 1 0 -0 -1 -1 -1 -2 -2 -2 -2 -2 -1 -0 -1 -1 -1 -1 -1 -1 -0 -0 0 0 0 0 0 0 0 0 -0 -0 -1 -1 -1 -1 -1 -1 -1 -1 -1 -1 -1 -1 -1 -1 -1 -1 -1 -1 -1 -1 -1
2 2 2 2 2 2 2 2 2 2 2 1 1 1 1 1 1 1 1 1 1 1 1 1 1 1 1 1 0 0 0 1 1 1 1 -0 -0 -1 -1 -2 -2 -2 -2 -3 -2 -2 -1 -1 -1 -0 -1 -1 -1 -1 -1 -0 -0 0 0 0 0 0 0 -0 -0 -1 -1 -1 -1 -1 -1 -1 -1 -1 -1 -1 -1 -1 -1 -1 -1 -1 -1 -1 -1 -1
1 1 1 1 2 2 1 1 1 1 1 1 1 1 1 1 1 1 1 1 1 1 1 1 1 1 1 1 1 1 1 1 1 1 0 -0 -0 -1 -1 -2 -2 -2 -2 -3 -3 -2 -1 -1 -1 -1 -1 -1 -2 -2 -1 -1 -1 -0 -0 0 0 0 0 -0 -0 -1 -1 -1 -1 -1 -1 -1 -1 -1 -1 -1 -1 -1 -1 -1 -1 -1 -1 -2 -2 -2
1 0 0 1 1 1 1 1 1 1 1 1 1 1 1 1 1 1 1 1 1 0 0 0 0 0 0 0 0 1 1 1 0 0 -0 -0 -0 -1 -1 -1 -1 -2 -2 -2 -3 -3 -2 -2 -2 -2 -1 -1 -2 -2 -1 -1 -1 -1 -0 -0 -0 -0 -0 -0 -0 -1 -1 -1 -1 -1 -1 -1 -1 -1 -1 -1 -1 -1 -1 -1 -1 -1 -2 -2 -2 -2
0 -0 -0 -0 0 1 1 1 1 1 1 1 1 1 0 0 0 0 0 0 0 0 0 0 -0 -0 -0 0 0 0 0 -0 -0 -0 -0 -0 -1 -1 -1 -1 -1 -2 -2 -2 -2 -2 -2 -2 -2 -2 -2 -1 -1 -1 -1 -1 -1 -1 -1 -0 -0 -0 -0 -0 -1 -1 -1 -1 -1 -1 -1 -1 -1 -1 -1 -1 -1 -1 -1 -2 -2 -2 -2 -2 -2 -2
-0 -1 -1 -1 -0 0 1 1 1 1 1 1 0 0 0 0 0 -0 -0 -0 -0 -0 -0 -0 -0 -0 -0 -0 -0 -0 -0 -0 -1 -1 -1 -1 -1 -1 -1 -1 -1 -2 -2 -2 -2 -2 -2 -2 -2 -1 -1 -0 -1 -1 -1 -0 -1 -1 -0 -0 -1 -1 -1 -1 -1 -1 -1 -1 -1 -1 -1 -1 -1 -1 -2 -1 -1 -1 -1 -2 -2 -2 -2 -2 -2 -2
-1 -1 -1 -1 -1 -0 0 0 1 0 0 0 0 0 0 -0 -0 -0 -0 -0 -1 -1 -1 -1 -1 -1 -1 -1 -1 -1 -1 -1 -1 -1 -1 -1 -1 -1 -1 -1 -1 -2 -2 -2 -2 -2 -2 -2 -2 -1 -0 1 1 0 -0 -0 -1 -1 -1 -1 -1 -1 -1 -1 -1 -1 -1 -1 -1 -1 -1 -1 -1 -1 -2 -2 -1 -1 -1 -2 -2 -2 -2 -2 -2 -2
-1 -1 -1 -1 -1 -1 -0 0 0 0 0 0 0 -0 -0 -0 -0 -1 -1 -1 -1 -1 -1 -1 -1 -1 -1 -1 -1 -1 -1 -1 -1 -1 -1 -0 -1 -1 -1 -1 -2 -2 -2 -2 -2 -2 -2 -2 -2 -1 -0 0 1 1 1 0 -0 -1 -1 -2 -2 -1 -1 -1 -1 -1 -1 -1 -1 -1 -1 -1 -1 -2 -2 -2 -2 -2 -2 -2 -2 -2 -2 -2 -2 -2
-1 -1 -1 -1 -1 -1 -1 -0 -0 -0 -0 -0 -0 -0 -0 -0 -0 -1 -1 -1 -1 -1 -1 -1 -1 -1 -1 -1 -1 -1 -1 -1 -1 -1 -1 -0 -1 -1 -1 -2 -2 -2 -2 -2 -2 -2 -2 -2 -2 -1 -1 0 1 1 1 1 0 -0 -1 -1 -1 -1 -1 -1 -1 -1 -1 -1 -1 -1 -1 -1 -1 -1 -2 -2 -2 -2 -2 -2 -2 -2 -2 -2 -2 -2
-1 -1 -1 -1 -1 -1 -1 -1 -1 -1 -1 -1 -1 -1 -1 -1 -0 -1 -1 -1 -1 -1 -1 -1 -1 -1 -1 -1 -1 -1 -1 -1 -1 -1 -1 -1 -1 -1 -2 -2 -2 -2 -2 -2 -2 -2 -2 -2 -2 -1 -1 -0 1 1 1 1 0 -0 -0 -0 -1 -1 -1 -1 -0 -0 -0 -0 -0 -0 -1 -1 -1 -1 -1 -2 -2 -2 -2 -2 -2 -2 -2 -2 -2 -2
-2 -2 -2 -2 -2 -2 -1 -1 -1 -1 -1 -1 -1 -1 -1 -1 -1 -1 -1 -1 -1 -1 -1 -1 -2 -2 -2 -1 -1 -1 -1 -1 -1 -1 -1 -1 -1 -2 -2 -3 -3 -3 -2 -2 -2 -2 -2 -2 -2 -1 -1 -0 0 1 1 1 1 1 0 0 -0 -0 0 1 1 1 1 0 0 0 -0 -0 -1 -1 -1 -2 -2 -2 -2 -2 -2 -2 -2 -2 -2 -2
-2 -2 -2 -2 -2 -2 -2 -2 -2 -2 -2 -1 -1 -1 -1 -1 -1 -1 -1 -1 -1 -1 -1 -2 -2 -2 -2 -2 -2 -1 -1 -1 -1 -1 -1 -1 -1 -2 -2 -3 -3 -3 -2 -2 -2 -1 -1 -1 -1 -1 -1 -1 -0 0 0 1 1 1 1 0 0 0 1 1 1 2 1 1 1 1 0 -0 -1 -1 -2 -2 -2 -2 -2 -2 -2 -2 -2 -2 -2 -2
-2 -2 -2 -2 -2 -2 -2 -2 -2 -2 -2 -2 -2 -2 -2 -2 -2 -1 -1 -1 -1 -2 -2 -2 -2 -2 -2 -2 -2 -1 -2 -2 -1 -1 -1 -1 -1 -2 -2 -2 -3 -3 -2 -2 -2 -2 -1 -1 -1 -1 -1 -1 -1 -0 -0 0 0 0 0 0 0 0 0 0 1 1 1 1 1 1 0 -0 -1 -1 -2 -2 -2 -2 -2 -2 -2 -2 -2 -2 -2 -2
-2 -2 -2 -2 -2 -2 -2 -2 -2 -2 -2 -2 -2 -2 -2 -2 -2 -2 -2 -2 -2 -2 -2 -2 -2 -2 -1 -1 -1 -1 -1 -1 -1 -1 -2 -2 -2 -2 -2 -2 -2 -2 -2 -2 -2 -2 -2 -1 -1 -1 -1 -1 -1 -1 -0 -0 -0 -0 -0 0 -0 -0 -0 0 0 0 0 0 0 0 -0 -1 -1 -2 -2 -2 -2 -2 -2 -2 -2 -2 -2 -2 -2 -2
-2 -2 -2 -2 -2 -2 -2 -2 -2 -2 -2 -2 -2 -2 -2 -2 -2 -2 -2 -2 -2 -2 -2 -2 -2 -2 -1 -1 -1 -1 -1 -1 -1 -1 -1 -1 -2 -2 -2 -2 -2 -2 -2 -2 -2 -2 -2 -2 -1 -1 -1 -1 -1 -1 -1 -1 -1 -1 -1 -0 -0 -0 -0 -0 -0 -0 -0 -0 -0 -0 -0 -1 -1 -2 -2 -2 -2 -2 -2 -2 -2 -2 -2 -2 -2 -2
-2 -2 -2 -2 -2 -2 -2 -2 -2 -2 -2 -2 -2 -3 -3 -3 -2 -2 -2 -2 -2 -2 -2 -2 -2 -2 -2 -2 -2 -1 -1 -1 -1 -1 -1 -1 -2 -2 -2 -2 -2 -2 -2 -2 -2 -2 -2 -1 -1 -1 -1 -1 -1 -1 -1 -1 -1 -1 -1 -1 -1 -1 -0 -0 -0 -0 -0 -1 -1 -1 -1 -1 -1 -1 -2 -2 -3 -3 -2 -2 -2 -2 -2 -2 -2 -2
-2 -2 -2 -3 -3 -3 -3 -3 -3 -2 -2 -2 -2 -3 -3 -3 -3 -3 -3 -2 -2 -2 -2 -2 -2 -2 -2 -2 -2 -2 -2 -2 -2 -2 -2 -2 -2 -2 -2 -2 -2 -2 -2 -2 -2 -2 -2 -2 -1 -1 -1 -0 -0 -0 -1 -1 -1 -1 -1 -1 -1 -1 -1 -1 -1 -0 -1 -1 -1 -1 -1 -1 -1 -2 -2 -2 -2 -3 -2 -2 -2 -2 -2 -2 -2 -2
-2 -3 -3 -3 -3 -3 -3 -3 -3 -3 -3 -2 -2 -2 -3 -3 -3 -3 -3 -3 -3 -3 -3 -3 -2 -2 -2 -2 -2 -3 -3 -2 -2 -2 -2 -2 -2 -2 -2 -2 -2 -2 -2 -3 -3 -3 -2 -2 -2 -1 -0 -0 0 -0 -0 -0 -0 -0 -1 -1 -0 -0 -1 -1 -1 -1 -1 -1 -1 -1 -1 -1 -1 -2 -2 -2 -3 -3 -3 -3 -2 -2 -2 -2 -2 -2
Height
784 785 786 787 788 791 793 794 795 796 797 798 798 799 800 801 802 802 802 803 803 803 804 804 805 806 807 808 809 810 811 812 814 816 817 819 821 823 825 826 827 828 830 832 835 838 841 843 845 847 849 851 852 853 854 855 856 857 858 859 859 860 861 861 862 863 864 864 865 866 867 868 869 869 870 870 870 870 871 872 873 874 875 875 876 876
784 785 786 787 788 790 792 793 795 796 796 797 797 798 799 800 801 802 802 803 803 803 803 804 804 805 807 808 808 809 810 811 812 814 816 819 821 824 826 828 829 830 832 834 836 839 841 843 845 847 849 851 852 853 854 855 856 857 858 859 859 860 861 861 862 863 864 864 864 865 866 867 868 869 869 870 870 870 870 871 872 874 874 875 876 876
783 784 785 787 788 789 791 792 794 795 795 796 797 798 799 800 801 802 802 803 803 804 803 803 804 805 807 808 809 810 810 810 812 813 816 819 822 825 827 829 831 832 834 836 837 839 841 843 845 847 849 850 851 853 854 855 856 857 858 858 859 859 860 861 862 863 864 864 864 864 865 866 868 869 869 870 870 870 870 871 872 873 874 875 875 876
782 783 784 786 788 789 790 791 792 793 794 795 796 797 799 800 801 802 802 802 803 804 804 804 804 805 807 809 811 812 812 812 812 814 816 819 822 825 827 829 831 833 835 837 838 840 842 843 845 847 848 850 851 852 853 854 856 857 857 858 858 859 859 861 861 862 863 864 864 864 865 866 867 868 869 870 870 870 870 870 871 872 873 874 875 876
781 782 783 785 787 788 790 791 791 792 793 794 795 797 798 799 801 802 802 802 803 804 804 805 805 805 807 809 812 813 814 814 815 816 818 820 822 824 826 828 831 833 835 837 838 840 841 843 845 846 847 849 850 851 852 854 855 856 857 857 858 858 859 860 861 861 862 863 863 863 864 865 866 867 869 870 870 870 870 870 871 871 872 873 875 876
781 782 783 784 786 787 789 790 790 791 792 793 795 796 798 799 800 802 802 803 803 804 805 805 806 806 807 809 811 813 815 815 816 817 819 821 822 824 826 828 830 832 834 836 838 839 841 842 844 845 846 848 849 850 852 853 855 856 856 856 857 857 858 859 860 861 861 862 862 863 863 864 865 867 868 870 870 870 870 870 870 871 871 872 874 875
780 782 782 784 785 786 787 789 789 790 791 792 794 796 797 799 800 801 802 803 803 804 804 805 806 807 807 809 811 813 815 815 816 818 819 821 823 825 826 828 830 831 833 835 837 838 840 841 842 844 845 846 848 849 851 852 854 855 855 856 856 856 857 858 859 860 861 861 862 862 863 863 865 866 868 869 869 869 870 870 870 870 870 871 872 874
779 781 782 783 784 786 787 788 789 789 790 791 793 795 797 798 800 801 802 803 803 804 804 805 806 807 808 809 811 812 814 815 816 817 819 821 823 825 826 828 830 831 833 835 836 837 839 840 841 842 844 845 846 848 850 851 853 854 855 855 855 856 856 857 858 859 860 861 861 861 862 863 864 865 867 868 868 869 869 869 869 869 869 870 871 872
777 779 781 782 783 784 786 787 789 789 790 791 792 794 796 797 799 801 802 803 803 804 804 805 806 807 808 809 810 812 813 814 815 817 819 821 823 824 826 828 830 831 833 834 836 837 838 839 841 841 843 844 845 847 849 851 852 853 854 854 854 855 856 856 857 858 859 860 861 861 861 862 863 865 866 866 867 867 868 869 868 868 868 869 870 871
775 777 780 781 782 782 784 786 788 789 791 792 793 794 794 796 797 800 802 803 803 804 804 805 806 807 808 809 810 811 812 814 815 817 819 820 822 824 826 828 830 831 833 834 836 836 838 839 840 841 842 843 845 846 848 850 851 852 853 853 853 854 855 856 856 857 859 860 860 861 861 861 862 864 865 865 866 866 867 867 867 867 867 868 869 871
776 777 778 780 782 782 783 785 787 789 791 792 794 795 796 796 796 798 800 802 803 804 805 805 805 806 808 809 809 810 811 813 815 817 819 821 823 825 826 828 830 831 833 834 835 836 837 838 839 840 841 842 844 845 847 849 850 851 851 852 853 853 854 855 856 857 858 859 860 861 861 861 862 863 864 864 865 866 866 866 866 866 866 867 868 869
775 777 778 780 781 783 784 785 787 789 791 792 794 796 797 797 797 797 798 800 802 804 805 806 806 807 807 808 809 809 811 812 815 817 820 822 823 825 826 828 830 831 833 834 835 836 837 837 838 839 841 842 843 844 846 847 848 849 850 851 852 852 853 854 855 856 857 859 860 860 860 861 861 862 863 863 864 865 866 866 866 866 866 866 867 868
774 776 778 779 781 782 783 785 787 789 791 792 793 795 796 797 798 798 799 800 801 803 804 806 807 808 808 808 809 810 811 812 815 817 819 821 823 824 826 827 829 831 832 833 834 835 836 837 838 839 840 841 842 843 844 846 847 848 849 850 851 852 852 853 854 855 856 858 859 860 860 860 860 861 861 863 864 864 865 865 865 865 865 866 866 867
774 776 778 779 781 782 783 784 786 788 790 791 792 793 794 796 797 798 799 801 802 803 804 805 807 808 809 809 810 811 812 813 815 817 819 821 822 823 825 826 828 830 831 832 833 834 835 836 836 837 838 839 841 841 843 844 845 846 847 848 850 851 852 853 853 855 856 857 858 859 859 859 860 860 861 862 863 864 864 864 864 864 865 865 866 866
773 775 777 779 780 781 782 783 785 787 789 791 792 793 795 796 797 798 799 801 802 803 804 805 807 808 809 810 811 811 812 813 815 817 819 820 822 823 824 826 827 829 830 831 832 833 834 835 835 836 837 838 839 840 841 842 844 845 846 847 848 849 851 852 853 854 855 856 857 858 859 859 859 859 860 861 862 863 864 864 863 863 864 864 865 865
771 773 775 777 778 780 781 782 784 786 788 790 792 793 795 796 797 798 799 800 801 803 804 806 807 809 810 810 811 811 812 813 814 816 817 819 821 822 823 825 826 828 829 831 831 832 833 833 834 835 836 836 837 839 840 841 842 843 844 845 846 848 849 851 851 853 854 855 856 857 857 858 858 859 859 861 862 863 863 863 862 862 863 863 864 864
770 772 773 775 777 779 780 782 784 786 788 790 792 793 794 795 797 797 798 799 801 802 803 805 806 808 810 811 811 812 812 813 814 815 817 818 820 822 823 824 825 826 828 829 830 831 832 832 833 834 835 836 837 838 839 840 841 842 843 844 845 846 848 849 850 851 852 854 855 856 856 857 857 858 858 859 861 862 862 862 862 861 862 862 863 863
769 771 772 773 775 777 779 781 783 785 787 788 790 792 794 795 796 797 798 799 800 802 803 804 805 806 808 810 810 811 812 812 813 815 816 818 819 821 822 823 824 825 827 828 829 830 831 832 832 833 835 836 837 838 839 840 841 841 842 843 844 846 847 848 849 850 851 852 853 854 855 856 856 857 857 858 860 861 861 861 861 861 861 861 862 862
768 769 770 772 773 775 777 779 781 783 785 787 788 790 793 794 796 797 797 798 799 800 801 803 804 805 806 807 807 809 810 812 813 814 816 817 819 820 821 822 824 825 826 827 828 829 830 831 832 833 834 836 836 837 838 839 840 841 842 843 844 845 846 847 848 849 850 851 852 853 854 855 855 856 856 857 858 860 860 860 860 860 860 860 861 861
767 768 769 770 772 773 776 777 778 780 782 783 786 788 790 792 794 796 797 797 798 799 800 801 802 804 804 805 806 807 809 811 812 813 815 816 818 819 821 822 823 824 825 826 827 828 830 831 832 833 834 835 836 837 838 839 840 841 842 843 843 844 845 846 847 848 849 850 851 852 853 853 854 854 855 856 857 858 859 859 859 859 859 859 860 860
765 767 767 768 770 772 774 775 777 778 780 782 784 786 788 791 792 794 795 796 797 798 800 801 802 803 803 804 806 807 808 810 811 812 814 816 817 818 820 821 822 823 824 825 826 827 829 830 831 832 833 834 836 836 837 838 839 840 841 842 843 844 844 845 846 847 848 849 850 851 852 852 853 853 853 854 856 856 857 857 857 857 858 858 858 859
764 766 767 768 769 770 771 773 775 777 779 781 783 785 787 788 790 792 793 795 796 797 799 800 801 802 803 804 805 806 807 809 810 811 813 815 817 818 819 820 822 823 824 824 826 826 828 829 830 831 832 833 835 836 837 838 839 840 841 841 842 843 843 844 845 846 847 848 849 850 851 851 851 852 852 853 854 855 855 856 856 856 856 857 857 857
764 765 767 768 769 770 771 773 775 777 779 780 781 782 784 786 787 789 791 793 795 796 798 799 800 801 802 804 805 807 807 808 809 811 812 814 815 817 818 819 821 822 822 823 824 826 827 828 829 830 831 832 834 835 836 837 838 839 840 841 841 842 843 843 844 845 846 847 848 849 850 850 851 851 851 852 853 853 854 854 855 855 855 856 856 856
765 766 767 768 769 771 772 773 775 777 778 780 782 783 784 786 787 789 791 792 794 795 797 798 799 801 803 804 805 806 807 808 809 811 812 813 814 815 816 818 819 820 821 822 823 825 826 827 828 829 830 831 832 833 835 836 837 838 839 840 840 841 842 843 844 845 846 846 847 848 849 849 850 850 851 851 852 852 853 853 854 854 854 855 855 855
766 767 767 769 770 771 772 773 775 776 778 779 781 783 785 787 788 790 791 792 794 795 796 798 800 801 802 803 804 805 807 807 809 810 811 812 813 814 815 816 817 819 820 821 822 823 825 826 827 828 829 830 831 832 833 834 836 836 837 838 839 840 841 842 843 844 845 845 846 847 848 848 849 849 850 850 851 851 852 852 853 853 854 854 854 854
766 767 768 769 770 771 772 773 775 776 777 779 780 782 784 786 787 789 791 792 793 794 796 797 799 800 801 802 803 804 805 806 807 808 809 811 812 812 813 815 816 817 819 820 821 822 824 825 826 827 828 829 830 831 832 833 834 835 836 837 838 839 840 841 842 842 843 844 845 846 846 847 848 848 849 849 850 851 851 851 852 852 853 853 853 854
767 767 768 769 770 771 772 773 774 776 777 778 779 781 782 784 786 788 790 791 792 793 794 796 797 799 800 801 802 802 803 805 806 807 809 810 811 811 812 813 815 816 817 818 820 821 822 823 824 825 826 827 828 829 831 831 832 834 835 836 837 838 839 840 841 841 842 843 844 845 846 846 847 847 848 848 849 849 850 851 851 852 852 852 853 853
767 767 768 769 770 771 772 773 774 775 776 778 779 780 782 783 785 786 787 788 790 792 793 794 796 797 799 800 801 802 803 804 805 806 808 810 810 810 811 812 814 815 817 817 818 820 821 822 822 823 824 825 826 828 829 830 831 832 833 834 836 836 837 838 839 840 841 841 842 843 844 845 846 846 847 847 848 849 849 850 850 851 851 851 852 852
766 767 768 769 770 771 772 772 773 775 776 777 778 780 781 782 783 784 785 787 789 791 792 793 794 796 797 799 800 802 802 803 804 806 807 809 809 810 810 812 813 814 815 817 818 819 819 820 820 821 822 824 825 826 827 828 829 830 831 833 834 835 836 837 838 839 840 840 841 842 843 844 845 846 846 846 847 848 848 849 850 850 850 851 851 851
766 767 768 769 770 771 772 772 773 774 775 777 778 779 780 782 782 783 785 786 788 790 791 792 794 795 796 798 800 802 802 802 803 805 807 808 808 809 810 811 812 812 814 816 818 818 818 818 818 819 820 822 823 824 825 826 827 828 829 831 832 833 834 835 836 837 838 839 840 841 842 843 844 844 845 846 846 847 847 848 849 849 849 849 849 850
766 767 767 768 769 770 771 772 773 774 775 776 777 778 780 781 782 783 784 786 787 788 790 792 793 794 795 797 799 801 801 801 802 804 805 807 807 807 809 809 810 811 812 814 816 817 817 816 815 816 817 819 820 821 822 824 825 826 827 829 830 831 832 834 835 836 837 838 839 840 841 841 842 843 844 844 845 846 846 847 847 848 848 848 848 848
765 766 767 768 769 770 771 772 772 773 774 776 777 778 779 780 782 783 784 785 786 788 789 791 792 793 794 795 796 797 798 798 800 802 803 805 806 807 807 808 809 810 811 812 814 814 815 814 813 814 815 816 817 819 820 822 823 824 826 827 828 829 831 832 833 834 836 836 837 838 839 840 841 842 842 843 844 844 845 846 846 846 846 846 847 847
765 766 767 767 768 769 770 771 772 773 774 775 776 777 779 780 781 782 783 785 786 787 789 790 791 792 793 794 795 796 797 798 799 801 802 803 805 806 806 807 808 809 810 812 812 813 813 813 813 813 813 814 816 817 818 819 821 822 824 825 826 828 829 831 832 833 834 835 836 837 838 839 840 841 841 842 843 843 844 844 845 845 845 845 846 846
765 765 766 767 768 769 770 771 772 772 774 775 776 777 778 779 781 782 783 785 786 787 788 789 791 792 792 794 795 796 796 797 798 800 801 802 803 804 805 806 807 808 810 811 812 812 813 813 813 813 813 814 814 815 816 817 819 820 822 823 825 826 828 829 830 831 832 833 835 836 837 837 838 839 840 841 841 842 842 843 844 844 844 844 844 845
764 765 766 767 767 768 770 771 772 772 773 775 776 777 778 779 780 782 783 784 786 787 788 789 790 791 792 793 794 795 796 797 798 799 800 801 802 803 804 804 805 807 809 810 811 812 812 812 813 813 813 813 814 814 815 816 817 819 820 822 823 825 826 827 829 830 831 832 833 834 835 836 837 838 839 840 840 841 841 842 842 843 843 843 843 843
764 765 766 766 767 768 769 770 771 772 773 774 776 777 778 779 780 781 783 784 785 786 787 789 790 791 791 792 793 794 795 796 797 798 799 800 801 802 803 803 804 806 807 808 810 811 812 812 812 813 813 813 813 813 814 815 816 817 819 821 822 823 825 826 827 828 829 830 831 832 833 834 835 836 837 838 839 839 840 841 841 842 842 842 842 842
763 764 765 766 767 768 769 770 771 772 773 774 775 777 778 779 780 781 782 784 785 786 787 788 789 790 791 792 793 794 795 796 797 797 798 799 800 801 802 802 803 805 806 807 808 810 811 812 812 812 813 813 812 812 813 814 815 817 818 819 821 822 823 825 826 827 828 829 830 831 831 833 834 835 836 837 837 838 839 840 840 841 841 841 841 841
763 764 765 766 767 768 768 770 771 772 773 774 775 776 777 779 780 781 782 783 785 786 787 787 788 789 790 792 792 793 794 795 796 796 797 798 799 800 801 802 802 803 804 805 807 808 810 811 811 812 812 812 812 812 812 812 814 815 817 818 819 821 822 823 825 826 826 827 828 830 831 831 832 833 835 836 836 837 837 838 838 839 840 840 841 840
763 764 765 766 767 768 769 770 771 772 773 774 775 776 777 779 780 781 782 783 784 785 786 787 788 789 790 791 792 793 794 794 795 796 796 797 798 799 800 801 802 802 803 805 806 807 808 809 810 810 811 811 811 811 811 812 812 814 815 817 818 819 821 822 823 824 825 826 827 828 829 830 831 832 833 834 835 835 836 836 836 837 838 839 839 840
763 764 765 766 767 768 769 770 771 772 773 774 775 776 777 778 780 781 782 783 784 785 786 787 787 788 789 790 791 792 793 794 794 795 796 797 797 798 799 800 801 802 803 804 805 806 807 808 808 809 810 810 811 811 811 811 812 813 814 816 817 818 819 821 822 823 824 825 826 827 828 829 830 831 831 832 833 833 834 834 835 836 836 837 838 838
763 764 765 766 767 768 769 770 771 772 773 774 775 776 777 778 779 780 782 782 784 785 785 786 787 788 789 790 791 792 792 793 794 795 795 796 797 797 798 799 800 801 802 803 804 805 806 807 808 809 809 810 810 810 811 811 812 812 814 815 816 817 818 819 821 822 823 824 825 826 827 827 828 829 830 831 831 832 832 833 834 835 835 836 836 837
763 764 766 767 767 769 770 771 772 772 773 774 775 776 777 778 779 780 781 782 783 784 785 786 787 788 789 790 791 791 792 793 794 794 795 796 796 797 798 799 800 801 802 803 804 805 806 806 807 808 809 810 810 810 810 811 812 812 813 814 815 816 818 818 820 821 822 823 824 825 825 826 826 827 828 829 830 831 831 832 833 833 834 834 835 835
764 765 766 767 768 769 770 771 772 773 774 775 776 777 777 778 779 780 781 782 783 784 785 786 787 787 788 789 790 791 792 793 793 794 795 795 796 797 797 798 799 800 801 802 803 804 805 806 807 807 808 809 810 810 810 811 811 812 813 813 815 816 817 817 818 820 821 821 822 823 824 824 825 826 826 827 828 829 830 831 831 832 832 832 833 833
764 765 766 767 768 769 770 771 772 773 774 775 776 777 777 778 779 780 781 782 783 783 784 786 787 787 788 789 790 791 792 792 793 794 795 795 796 797 797 798 799 800 801 802 802 803 804 805 806 806 807 808 809 809 810 810 811 811 812 813 814 814 815 815 817 818 819 820 821 822 822 822 823 824 825 826 826 827 828 829 829 830 830 831 831 832
765 766 767 768 769 770 771 772 772 773 774 775 776 777 777 778 779 780 781 782 782 783 784 785 786 787 788 789 790 791 792 792 793 794 794 795 796 796 797 798 799 800 801 801 802 802 803 803 804 805 806 807 808 809 809 810 810 810 811 812 813 813 814 815 816 817 817 818 819 820 820 821 822 822 824 824 825 826 826 827 827 828 828 829 830 830
765 766 767 768 769 770 771 772 772 773 774 775 776 777 778 778 779 780 781 782 782 783 784 785 786 787 787 788 789 790 791 792 793 793 794 795 795 796 797 797 798 799 800 801 802 802 802 803 804 805 806 806 807 808 808 809 809 810 810 811 812 812 813 814 815 815 816 817 817 818 819 820 821 821 822 822 823 823 824 825 826 826 827 827 828 829
765 766 767 768 769 770 771 772 773 774 774 775 776 777 778 778 779 780 781 782 782 783 784 785 786 787 787 788 789 790 791 792 792 793 794 794 795 796 797 797 798 799 800 800 801 802 802 803 803 804 805 806 806 807 807 808 808 809 810 810 811 812 812 813 814 815 815 816 817 817 818 819 819 820 820 821 822 822 823 823 824 825 826 826 826 827
765 766 767 768 769 770 771 772 773 773 774 775 776 777 778 779 779 780 781 782 782 783 784 785 786 786 787 788 788 789 790 791 792 792 793 794 795 795 796 797 797 798 799 800 801 801 802 802 803 803 804 805 805 806 807 807 807 808 809 810 810 811 812 812 813 814 814 815 816 817 817 818 818 818 819 820 821 821 821 822 823 823 824 825 825 826
765 766 767 768 769 770 771 772 772 773 774 775 776 777 778 779 779 780 781 782 782 783 784 784 785 786 787 787 788 789 790 791 791 792 793 793 794 795 796 796 797 798 799 799 800 801 801 802 802 803 803 804 804 805 806 806 807 807 808 809 810 810 811 811 812 813 813 814 815 815 816 817 817 817 818 819 819 819 820 820 821 822 823 823 824 824
765 766 767 768 769 770 771 771 772 773 774 775 776 777 777 778 779 780 781 782 782 783 784 784 785 785 786 787 788 789 789 790 791 792 792 793 793 794 795 796 797 797 798 799 799 800 801 801 802 802 802 803 803 804 805 805 806 807 807 808 808 809 809 810 811 812 812 813 814 814 815 816 816 817 817 818 818 818 818 819 819 820 821 822 822 823
765 766 767 768 768 769 770 771 772 773 774 775 775 776 777 778 779 780 781 782 782 783 784 784 785 785 786 787 787 788 789 789 790 791 792 792 793 794 794 795 796 797 797 798 799 799 800 801 801 801 801 802 802 803 804 804 805 805 806 806 807 807 808 809 809 810 811 812 812 813 814 814 815 815 816 817 817 817 817 817 817 818 819 820 821 821
Wind_Speed
18 18 17 16 16 15 15 14 14 15 15 14 14 15 16 16 16 17 17 18 19 19 20 20 19 20 22 25 29 32 35 37 37 37 37 36 36 36 36 35 35 34 33 32 31 30 29 28 27 27 26 26 25 24 24 23 22 21 20 19 17 16 15 13 11 10 8 8 8 9 11 12 13 14 15 15 15 14 14 14 13 12 10 9 8 7
18 18 18 17 17 17 16 16 16 16 16 17 17 17 17 17 17 18 18 18 18 18 20 21 21 23 26 29 32 35 38 39 39 39 37 36 35 34 33 32 32 31 31 30 30 29 28 28 27 27 26 25 24 23 22 21 20 19 18 17 16 14 13 11 10 9 8 8 9 10 11 12 12 13 14 14 14 14 14 14 13 12 11 9 8 7
20 20 19 18 18 18 18 18 18 18 18 19 19 18 18 18 19 20 21 21 21 21 22 24 26 28 30 31 33 35 37 39 39 39 37 36 34 32 31 30 29 29 29 28 28 28 27 27 27 26 26 25 24 22 21 20 19 18 17 16 14 13 12 10 9 8 8 9 10 11 11 11 12 12 12 12 13 13 13 12 12 12 10 8 7 7
21 21 21 20 19 19 20 21 21 20 20 20 20 20 20 20 21 22 23 24 25 25 26 27 30 31 31 31 31 32 34 36 37 37 36 34 32 31 30 29 27 26 26 26 26 26 27 27 26 26 25 24 23 22 21 20 19 17 16 15 14 12 11 10 9 9 9 10 11 11 11 10 10 10 11 11 11 11 11 11 12 12 10 8 6 6
20 20 21 21 20 19 20 22 22 22 22 22 22 22 22 22 23 24 25 26 28 28 29 29 31 32 32 31 30 30 31 33 34 34 33 32 31 30 28 26 25 24 23 24 25 26 26 26 26 26 25 24 23 22 20 19 18 17 16 15 13 12 11 11 10 10 11 11 12 11 10 10 9 9 10 10 10 10 11 11 12 12 10 8 7 6
18 20 21 21 20 20 21 22 23 24 24 24 24 24 24 24 25 25 26 27 28 29 30 30 31 32 33 32 31 30 30 31 32 32 31 30 29 27 26 24 23 23 23 24 25 26 27 27 26 26 25 24 23 21 20 19 17 16 15 14 13 13 12 11 11 11 12 12 12 11 10 9 9 10 10 10 10 10 10 11 12 12 11 9 8 7
18 19 20 20 21 22 22 23 24 25 25 25 25 25 25 26 26 26 26 27 28 29 29 30 31 32 33 33 32 32 31 31 31 30 29 28 27 26 25 24 24 24 25 26 27 27 27 27 27 26 25 24 22 21 19 18 17 16 15 14 14 13 12 12 12 13 13 13 12 11 10 10 10 11 12 12 11 10 10 11 12 13 13 11 9 8
18 19 20 20 20 21 22 22 23 24 25 26 26 26 25 26 26 26 27 27 28 28 29 29 30 31 32 33 33 32 32 31 30 30 29 27 26 26 26 25 26 26 27 28 28 28 28 28 27 26 25 23 22 20 18 17 16 15 15 14 14 13 13 13 13 13 14 13 13 12 11 11 12 13 14 14 13 12 11 11 12 13 13 12 11 9
20 19 19 20 21 21 20 20 21 23 24 26 26 26 26 26 25 25 26 26 27 27 28 29 29 30 31 32 33 33 32 31 30 30 29 28 27 27 27 27 27 28 29 29 29 29 28 27 26 25 23 22 20 19 17 16 16 15 15 15 14 14 14 14 14 14 14 14 13 13 12 12 12 13 15 15 15 14 13 13 13 13 14 14 12 10
21 20 18 19 20 21 20 18 20 22 23 23 24 26 26 26 26 24 24 23 24 26 28 29 30 30 30 31 32 32 32 30 29 29 29 28 28 28 28 28 28 28 28 27 27 27 26 25 23 22 21 20 19 18 17 17 16 16 16 16 15 15 14 14 14 14 14 14 14 13 13 12 12 13 14 15 16 16 16 15 15 15 15 15 14 12
19 19 19 18 18 18 19 19 20 21 22 22 21 22 23 25 25 24 23 21 21 22 24 27 28 29 29 29 30 32 32 30 29 28 27 27 27 27 27 26 26 25 24 24 23 22 22 21 21 20 20 19 19 18 18 17 17 17 17 16 16 15 15 15 15 15 14 14 14 13 13 12 12 12 13 15 16 17 17 17 17 17 17 17 16 15
18 18 18 17 17 17 17 19 20 21 21 20 18 16 17 19 21 22 22 21 21 21 21 22 23 25 26 27 28 30 30 29 28 27 26 25 25 25 24 24 23 22 21 20 20 19 19 20 20 20 19 19 19 19 18 18 18 17 17 17 16 16 16 15 15 15 15 15 14 14 13 12 12 12 13 14 16 17 18 18 18 18 18 18 17 17
18 17 17 17 17 17 18 18 19 19 19 19 18 16 16 17 19 20 20 20 21 21 21 20 19 20 21 23 25 26 27 27 26 26 24 23 23 23 23 22 21 20 20 20 20 19 20 20 20 20 20 20 20 19 19 19 18 18 17 17 16 16 16 16 15 15 15 15 14 14 13 12 11 11 12 13 15 17 18 18 18 18 17 18 18 18
17 17 16 16 16 17 18 19 19 17 17 18 18 19 19 20 20 19 18 18 19 20 21 20 19 18 18 19 21 22 24 24 24 23 22 22 22 22 23 22 22 22 22 22 21 21 21 21 21 21 21 21 21 21 21 20 20 19 18 17 17 16 16 16 16 15 15 15 14 14 13 12 12 12 12 13 14 16 17 18 18 18 17 17 18 18
17 17 16 14 14 16 18 19 19 17 17 17 17 18 20 20 20 19 19 18 19 19 20 19 18 17 17 18 19 21 22 23 23 23 22 22 22 22 22 23 23 23 23 23 24 23 23 23 23 23 22 23 23 23 23 22 22 21 20 19 18 17 17 17 16 16 16 15 15 14 13 13 12 12 12 13 14 15 16 17 17 17 17 17 17 18
19 18 16 15 16 17 19 20 19 18 17 17 17 18 19 19 19 19 20 20 20 20 18 17 14 12 12 17 20 21 21 22 23 23 23 23 22 22 22 23 24 24 24 25 25 25 24 24 24 24 23 24 24 24 24 24 23 22 21 20 19 19 18 18 17 17 17 16 16 15 14 14 13 13 13 13 14 14 15 15 16 16 16 17 17 18
18 18 17 17 16 18 20 21 21 20 19 18 18 19 20 20 20 20 20 20 20 18 17 15 11 8 8 13 18 21 21 22 22 23 23 24 24 23 23 23 25 26 25 26 26 26 26 25 25 24 24 24 24 24 24 24 24 23 22 21 21 20 19 19 18 18 17 17 16 16 15 15 15 15 14 14 14 15 15 15 15 15 16 16 17 17
17 17 17 17 17 18 21 21 21 21 22 21 20 20 20 21 21 20 20 20 19 17 16 15 12 9 9 10 17 22 23 23 23 23 23 24 25 25 25 24 25 26 26 26 26 26 26 25 25 25 24 23 23 23 23 23 23 23 22 22 21 20 20 19 18 18 17 17 17 16 16 16 16 16 16 16 16 16 16 15 15 15 15 16 16 16
18 18 18 17 18 19 21 23 23 24 24 24 23 22 21 21 21 21 21 21 20 19 18 15 14 13 12 12 19 25 25 24 24 23 22 23 25 26 27 26 26 26 26 26 26 26 25 25 24 24 24 23 22 22 22 22 22 22 21 21 21 20 19 19 18 18 17 17 17 17 17 17 17 17 17 17 17 17 17 16 16 16 16 16 16 15
19 19 19 19 20 21 21 24 26 27 27 27 27 25 23 22 22 22 21 21 21 21 20 18 16 15 15 17 22 26 28 26 24 22 21 22 24 26 27 26 26 26 26 26 26 25 25 25 24 24 24 23 22 22 21 21 21 21 21 20 20 19 18 18 18 18 17 17 18 18 18 18 18 18 18 18 18 18 18 17 17 16 16 15 15 15
20 20 22 23 24 22 22 25 28 29 29 29 28 26 24 24 23 22 22 22 22 21 19 17 15 15 16 17 21 26 29 27 24 21 19 19 21 24 27 26 26 25 25 25 25 25 25 25 24 24 24 24 23 22 22 22 22 21 21 21 20 20 20 19 19 18 17 18 18 19 19 19 19 18 18 18 18 18 18 18 17 16 16 15 15 14
22 22 24 24 23 23 23 27 29 29 29 29 28 27 25 25 23 23 23 23 22 20 18 15 14 14 15 15 18 22 27 28 25 21 18 15 17 22 26 26 25 25 25 25 25 25 25 25 25 25 25 25 24 24 23 23 22 22 22 21 21 20 20 19 18 18 18 18 19 19 20 19 19 19 19 19 19 19 18 18 17 16 16 15 15 14
18 20 21 21 20 20 20 22 25 27 28 28 28 28 26 26 25 25 25 23 21 19 18 17 16 15 13 12 13 18 24 27 26 23 18 14 15 20 25 26 26 25 25 25 25 25 25 25 25 25 25 25 24 24 24 23 23 22 21 20 20 19 18 18 17 17 18 19 19 19 19 19 19 19 19 19 19 18 18 18 17 16 16 15 15 14
13 15 17 18 18 18 17 19 22 24 25 26 25 24 23 23 23 22 23 23 22 20 20 19 17 14 12 11 12 15 20 25 26 23 19 15 15 19 24 26 26 26 25 25 25 25 25 25 25 25 25 25 24 23 23 22 21 21 19 19 18 17 17 17 17 18 18 19 19 19 19 19 18 18 18 18 18 18 18 17 17 17 16 15 15 15
10 11 13 14 15 16 16 16 17 20 22 23 23 22 21 19 19 19 19 20 21 20 19 17 14 12 12 12 14 16 18 23 26 25 20 16 15 17 22 25 27 26 25 25 26 26 25 26 26 26 25 25 24 22 22 21 20 19 18 18 17 17 18 18 18 19 19 19 20 19 19 19 18 18 18 18 18 18 18 17 17 16 16 16 15 15
9 9 9 11 12 13 13 13 14 16 18 20 22 22 21 19 18 18 18 19 20 20 18 15 13 13 13 14 16 18 19 22 26 26 22 18 15 16 19 23 26 27 26 26 26 26 26 26 27 27 26 25 24 22 21 20 20 19 18 18 18 18 19 19 20 20 20 20 20 19 19 19 18 18 18 18 18 17 17 17 17 16 16 16 15 15
8 8 8 9 10 11 12 12 13 14 15 17 19 21 21 20 19 18 18 20 21 20 18 14 11 11 12 13 16 18 20 23 26 27 24 20 16 15 18 21 24 25 26 26 26 26 26 27 27 27 27 26 25 23 22 21 20 19 19 19 19 19 20 20 21 21 20 20 20 20 19 19 19 18 18 18 17 17 17 16 16 16 16 16 15 15
7 7 7 7 8 9 10 11 11 12 14 16 17 19 20 20 19 19 20 21 22 21 18 14 11 9 9 10 13 17 20 23 26 27 25 20 15 14 17 20 21 23 24 24 25 25 26 27 27 28 28 27 26 24 23 22 21 20 20 20 20 21 21 21 21 21 20 20 20 20 20 19 19 18 18 17 17 17 16 16 15 15 15 15 15 16
7 7 7 7 7 8 9 10 10 11 13 14 16 17 18 18 19 20 21 21 21 19 16 15 13 10 9 10 12 14 18 21 24 26 26 20 15 13 16 18 19 21 22 21 20 21 24 26 27 28 28 28 27 26 24 23 22 22 22 22 22 22 22 22 21 21 20 21 21 20 20 20 19 18 18 17 17 17 16 16 15 15 15 15 16 16
8 8 8 7 7 8 8 9 10 11 12 13 15 16 16 17 17 18 19 20 20 19 16 15 13 12 10 10 8 8 13 20 23 25 26 21 15 13 15 17 18 20 20 17 12 10 15 21 26 29 29 29 28 28 26 25 24 24 24 23 23 23 22 22 21 20 20 21 21 21 20 20 19 19 18 17 17 17 16 16 15 15 16 16 17 17
9 9 9 9 9 8 9 9 10 11 12 12 14 15 15 15 16 16 17 18 19 19 17 16 15 14 13 10 6 3 7 17 23 25 26 23 18 16 17 17 18 20 20 17 9 3 4 10 17 24 28 29 29 29 28 27 26 26 26 25 25 24 23 21 20 20 20 21 21 20 20 20 19 19 18 18 18 17 17 16 15 15 16 17 17 17
10 10 10 10 9 9 9 9 10 11 12 13 14 14 14 15 15 16 16 17 18 18 18 17 16 16 15 13 9 6 6 13 19 23 25 23 20 18 19 18 18 19 20 21 14 6 2 2 6 13 21 26 29 30 29 29 28 28 28 27 27 25 24 22 20 20 20 20 20 20 20 20 20 19 18 18 18 18 17 17 16 16 17 18 18 18
10 10 10 10 10 10 10 10 11 12 13 14 14 14 14 14 15 16 16 16 16 17 18 17 17 16 16 15 13 9 7 9 13 19 22 22 20 18 19 19 18 19 20 22 18 11 5 3 3 6 12 19 25 28 29 30 29 29 29 29 28 27 25 23 22 21 20 20 20 20 20 20 19 19 19 19 19 18 18 17 16 16 18 18 18 18
10 10 11 11 11 11 11 11 11 13 14 14 14 14 14 15 15 16 16 16 16 16 16 17 17 17 17 15 13 10 8 8 10 13 17 22 21 18 19 19 19 19 20 21 20 14 7 5 3 3 6 13 19 23 27 29 29 29 29 29 28 27 26 25 23 22 21 21 20 20 20 20 19 19 19 19 19 19 18 17 16 16 18 18 18 18
11 11 12 12 13 13 13 13 13 14 15 16 16 16 15 15 16 16 16 16 16 16 16 16 16 16 17 16 14 12 11 10 10 10 13 18 20 19 19 19 20 19 19 19 19 16 9 7 6 4 4 9 14 19 23 26 28 28 29 28 28 27 27 26 25 24 23 22 22 22 21 21 20 19 19 20 20 20 19 17 16 16 17 18 18 18
11 12 12 13 14 14 15 15 15 16 16 17 17 17 16 16 16 16 16 16 17 16 16 16 15 15 15 15 14 14 13 12 10 9 10 13 16 18 18 19 20 20 18 18 18 16 12 10 8 7 6 7 9 14 19 24 26 27 28 27 27 27 27 27 26 25 24 24 24 23 23 22 21 20 20 21 21 20 18 17 16 16 16 17 18 18
11 12 12 13 14 15 15 16 16 17 17 18 18 18 17 16 16 16 16 16 16 16 16 16 15 14 14 13 12 12 11 10 9 8 8 9 11 15 18 18 19 20 20 19 18 17 15 12 9 8 8 7 6 8 13 21 25 26 27 27 27 27 27 27 26 26 25 25 25 24 23 22 21 21 21 21 21 20 19 17 17 16 16 16 16 17
11 11 12 12 13 14 15 16 16 17 17 18 18 18 17 17 16 15 15 15 15 15 15 15 14 14 13 12 11 10 9 9 8 7 6 6 8 12 15 17 18 19 20 20 19 18 17 13 10 9 8 7 6 8 12 19 24 26 27 28 28 28 28 27 27 27 26 26 25 24 23 22 21 21 21 22 22 22 21 19 19 18 18 16 16 16
11 11 12 12 12 13 14 15 16 16 17 17 17 17 17 16 15 15 14 14 13 13 13 13 13 13 13 12 11 10 9 8 7 6 6 6 7 10 13 16 17 18 19 20 19 19 18 16 13 11 9 7 6 8 12 17 23 26 27 28 28 28 28 28 27 27 26 26 25 24 23 22 21 21 21 23 23 24 23 22 22 21 20 19 18 17
11 11 12 12 12 12 14 14 15 15 16 16 16 16 16 16 15 14 13 13 12 12 12 11 12 11 11 10 10 9 9 8 7 7 6 6 7 9 12 15 17 17 18 18 19 19 19 17 16 15 13 9 6 6 10 15 20 25 27 25 25 27 29 29 28 27 26 25 25 24 23 23 22 22 22 23 24 25 25 25 24 23 22 21 20 19
11 11 12 11 11 11 12 12 13 14 14 15 15 15 15 15 15 14 13 12 11 10 10 10 10 10 9 9 9 8 8 8 7 7 6 6 7 9 11 14 16 17 17 17 18 18 19 18 16 15 14 10 7 6 8 12 17 21 24 22 22 25 28 29 28 27 26 25 25 24 24 23 23 23 24 24 25 26 26 26 25 24 23 23 22 21
11 11 11 11 11 11 11 11 11 12 13 13 13 14 14 14 14 13 12 11 11 10 9 9 9 9 9 8 8 8 8 7 7 7 7 7 8 9 11 14 15 16 15 16 17 18 18 18 17 16 14 11 8 5 5 7 11 15 20 22 23 23 23 26 27 27 26 25 25 24 24 24 24 24 25 25 25 26 26 26 25 24 24 24 23 23
11 11 10 10 10 10 10 10 10 11 11 11 12 12 12 12 11 11 11 11 10 10 10 9 9 9 8 8 8 8 8 8 8 8 8 8 8 10 12 13 14 14 14 14 16 17 18 18 18 17 15 13 10 7 4 5 7 10 14 19 21 17 10 16 22 25 25 25 25 24 24 25 25 25 25 26 26 26 26 26 26 26 25 25 24 24
10 10 10 10 9 9 9 10 10 10 10 10 11 11 10 10 9 9 9 10 10 10 10 10 9 9 9 9 9 9 9 9 9 8 8 8 9 10 11 13 13 13 12 13 14 16 17 18 18 18 17 15 12 10 7 6 7 8 10 13 16 18 15 13 15 19 22 23 23 23 24 24 25 25 25 26 26 27 27 27 27 27 26 26 25 24
10 10 10 10 9 9 9 10 10 10 10 10 10 11 10 10 9 9 9 9 10 10 11 10 10 10 10 10 10 10 10 10 9 9 9 8 9 10 11 12 13 13 12 11 12 14 16 18 18 18 17 16 15 12 10 9 9 9 10 11 13 15 16 13 12 14 17 20 21 22 23 24 24 25 25 26 27 27 28 28 28 27 27 27 26 25
10 10 10 10 9 10 10 10 10 10 10 11 11 11 11 10 10 9 9 9 10 11 11 10 10 11 11 11 11 10 10 10 9 9 9 9 9 10 11 12 12 12 12 11 10 11 12 14 15 16 16 16 15 14 13 12 11 11 12 12 13 14 16 15 14 14 15 17 18 20 21 22 23 24 25 26 27 27 27 28 28 27 27 27 26 25
10 10 10 10 10 10 10 10 10 11 11 12 12 12 12 11 11 10 10 10 10 11 11 11 11 11 11 11 11 11 11 11 10 10 10 9 10 10 11 11 12 12 12 12 11 10 10 10 11 12 13 14 14 14 14 14 13 12 12 13 13 14 16 17 17 16 15 15 16 17 19 21 23 24 25 26 26 27 27 27 27 27 27 26 26 25
9 9 9 9 10 10 11 11 11 12 12 12 13 13 13 12 12 11 11 11 11 12 12 12 12 11 11 10 11 11 11 11 11 11 10 10 10 11 11 11 12 12 12 12 11 11 10 10 10 10 11 12 12 13 14 14 13 13 12 12 13 13 15 16 16 16 16 16 15 15 17 19 22 24 25 25 25 26 26 26 26 26 26 26 25 25
8 8 9 9 10 10 11 11 12 12 13 13 13 13 13 13 12 12 12 12 12 12 13 13 13 12 12 12 11 11 11 11 11 11 11 11 11 11 11 12 12 12 12 11 11 11 10 10 10 10 11 11 12 12 13 13 13 13 13 13 13 13 14 15 16 16 17 16 16 15 15 17 19 20 22 23 24 24 26 26 26 26 26 25 25 25
8 8 8 9 9 10 11 11 12 12 13 13 13 14 14 13 13 12 11 11 12 12 13 13 13 13 13 12 12 12 12 12 12 12 12 12 12 12 12 12 12 12 11 11 10 10 9 9 10 11 12 13 13 13 13 13 13 13 13 14 14 15 15 15 16 16 17 17 17 16 16 16 17 18 20 22 23 24 25 25 26 26 26 25 25 25
8 8 8 8 9 9 10 11 11 12 13 13 13 13 14 13 13 12 12 12 12 12 12 12 12 12 12 12 12 12 12 12 12 12 12 12 12 12 13 12 12 12 12 10 9 8 7 6 6 8 12 14 14 14 14 15 15 15 15 16 16 16 16 16 16 17 17 18 18 18 18 17 18 19 20 21 22 22 23 24 26 27 26 25 25 25
Wind_Direction
181 179 178 182 181 179 181 191 197 199 199 198 197 198 203 208 211 212 213 216 219 222 223 222 216 206 195 190 186 181 177 171 165 161 159 157 156 155 156 157 158 159 161 163 164 166 168 170 172 174 176 177 178 179 180 181 182 183 184 185 186 188 191 195 200 204 202 195 188 186 189 193 194 194 193 191 190 189 187 185 183 179 174 167 165 167
174 173 172 177 179 177 176 182 190 193 191 187 185 185 187 190 192 192 190 190 193 196 197 195 188 177 168 165 165 165 165 164 162 160 158 156 155 155 155 157 158 159 161 163 165 167 170 173 175 177 178 179 180 180 181 181 183 184 185 186 187 189 192 197 202 204 198 189 184 186 191 195 197 197 196 195 193 191 189 187 185 181 171 164 164 171
165 165 167 173 176 176 173 175 181 185 184 181 178 177 176 176 175 171 167 164 164 168 172 173 168 161 156 154 155 157 159 160 160 160 159 159 159 160 161 162 163 164 164 166 168 171 173 176 177 179 180 180 181 181 181 182 184 185 186 187 189 191 195 199 202 201 193 187 187 191 196 200 201 201 199 197 194 191 188 186 185 180 170 163 165 173
162 162 165 167 170 172 172 171 173 175 176 175 173 171 170 167 163 160 157 153 152 153 156 159 159 156 153 151 151 153 155 157 159 160 161 163 165 167 167 168 168 169 170 172 174 176 178 179 180 181 181 182 182 182 183 184 185 187 188 190 192 195 198 199 200 197 192 191 195 199 204 205 205 203 199 197 194 190 185 184 182 177 169 164 168 177
163 163 164 163 162 164 168 169 168 168 168 168 166 164 164 162 159 155 152 149 147 146 146 150 152 153 152 151 152 154 156 157 159 161 163 166 168 169 170 171 172 174 176 179 181 182 183 183 183 183 183 183 184 184 185 186 188 190 192 194 196 199 201 202 200 197 196 198 203 206 209 208 204 199 194 191 188 186 182 182 181 177 171 167 170 179
164 164 163 161 159 158 160 163 164 163 161 159 159 158 158 157 155 151 148 145 143 143 142 144 147 149 151 152 154 156 157 159 160 162 165 167 169 170 172 174 176 178 181 183 185 186 187 187 186 185 185 185 186 187 188 190 192 195 198 200 202 204 206 205 203 202 202 206 209 211 211 207 199 191 186 184 182 181 182 183 183 179 174 170 171 179
162 163 162 160 158 156 155 156 159 159 157 154 153 152 152 152 150 148 146 144 143 142 142 142 144 146 149 152 154 156 157 159 160 162 165 168 170 172 173 176 178 180 182 184 186 187 188 188 188 188 187 187 188 189 191 194 197 201 205 207 209 210 209 208 206 206 208 211 213 213 211 205 197 189 183 181 179 180 182 186 186 184 180 175 173 177
157 159 159 157 154 153 152 153 155 157 158 154 150 147 146 146 145 145 146 146 145 143 142 142 142 144 147 151 154 157 158 158 159 161 164 167 169 172 174 176 178 180 182 183 185 186 187 188 189 189 190 190 190 192 195 200 205 210 213 214 215 214 212 210 209 210 212 214 215 214 211 206 200 193 188 184 181 181 184 188 190 189 186 183 179 179
154 155 157 157 153 150 149 151 154 156 157 155 152 148 143 141 141 141 142 142 143 143 143 142 141 142 146 151 155 158 160 160 160 161 164 166 168 171 173 175 177 179 181 182 183 184 186 187 188 190 191 193 194 198 203 209 215 219 220 219 217 214 212 211 212 213 215 216 216 214 211 209 206 202 197 192 188 186 187 189 192 192 192 190 187 186
154 154 155 156 156 153 150 151 154 155 155 155 154 152 148 143 139 137 135 135 137 140 142 143 142 142 144 150 154 157 159 159 161 163 166 168 170 172 173 175 176 178 179 181 182 183 185 187 189 192 195 198 202 206 211 216 219 221 220 218 215 213 212 212 213 214 216 217 217 216 214 214 214 212 208 204 199 196 194 193 194 195 195 195 194 193
149 151 150 150 152 153 151 152 154 156 155 153 151 151 150 147 144 140 135 133 134 137 139 140 141 141 142 145 150 154 156 155 157 161 165 168 170 172 174 175 176 178 180 182 184 186 188 192 195 199 202 206 208 211 214 216 217 217 215 213 212 212 212 214 215 217 218 220 220 219 219 220 221 221 218 215 211 207 205 203 201 201 200 199 199 198
147 148 147 147 147 147 148 150 153 155 155 153 149 149 152 152 150 147 143 140 139 140 140 141 141 141 142 143 146 150 154 154 155 158 162 166 170 172 174 176 178 180 182 186 189 193 197 200 202 204 206 207 208 210 210 211 211 211 211 210 211 212 214 216 217 219 220 222 223 224 225 225 226 226 225 222 220 218 215 213 212 210 208 206 205 204
148 148 147 146 146 147 147 147 149 152 156 157 157 159 162 160 156 152 147 145 145 146 147 146 145 146 147 147 148 151 154 156 159 162 165 169 173 177 179 181 182 185 188 191 194 197 201 203 204 205 205 205 204 204 205 206 207 208 209 210 213 215 217 219 220 221 222 224 226 228 229 229 229 228 228 226 225 224 223 221 219 218 216 214 213 211
146 147 146 145 147 150 152 152 153 157 163 167 168 168 166 164 160 155 148 144 146 150 151 149 149 152 155 155 156 159 161 163 166 169 171 176 181 186 188 188 189 190 191 192 192 194 197 199 200 201 202 203 202 202 203 204 205 207 209 211 214 218 220 221 221 222 224 226 229 231 232 231 230 229 228 228 228 228 228 226 224 223 222 221 220 219
149 149 150 151 154 157 159 160 161 164 168 170 170 168 164 161 159 156 149 145 146 149 150 147 147 150 156 161 164 167 170 171 171 171 174 180 186 192 194 193 192 192 193 191 189 190 194 196 197 199 201 202 203 204 204 204 205 206 207 210 213 217 221 223 224 225 226 228 230 232 233 232 230 228 226 227 229 231 231 229 227 226 225 224 224 224
154 155 156 159 161 164 167 167 167 168 168 169 169 165 160 157 157 157 153 149 149 149 146 141 139 144 157 166 170 172 174 175 174 174 174 178 186 193 195 193 191 191 193 192 190 190 192 196 198 200 202 204 205 206 206 206 207 206 206 207 210 214 219 222 225 226 227 229 231 231 231 230 228 226 224 225 227 230 232 231 229 228 227 227 227 227
158 160 161 162 164 167 171 171 171 170 170 170 171 171 167 164 162 160 156 154 152 152 152 151 148 147 160 172 175 177 178 176 176 176 177 177 183 191 195 195 192 191 193 194 194 194 194 196 199 202 204 206 207 208 209 209 208 207 206 206 208 212 216 221 224 226 227 228 229 230 229 229 227 225 223 223 225 229 231 231 229 228 227 227 227 228
161 164 164 164 165 168 171 172 173 174 174 174 174 175 175 172 170 166 163 160 159 160 163 165 166 164 163 176 181 182 183 180 178 177 178 178 183 189 194 196 196 195 195 197 198 199 199 199 201 203 205 206 207 208 209 209 208 207 206 206 208 211 215 219 222 224 225 226 227 227 227 227 226 224 223 222 224 226 229 229 228 227 226 226 226 227
166 167 167 166 166 168 171 173 175 177 178 177 177 175 173 174 175 174 171 171 171 171 171 174 177 177 176 182 184 184 184 184 181 178 177 179 183 188 192 195 198 198 198 200 202 204 204 205 206 207 207 206 206 207 207 207 207 207 206 207 208 210 213 216 219 221 223 224 225 225 225 224 224 223 222 222 223 225 227 228 227 226 226 226 226 225
168 170 171 169 167 167 172 178 182 183 183 183 181 177 173 174 176 178 179 179 180 180 180 181 183 185 185 186 186 186 185 184 182 179 177 180 184 188 191 195 198 200 201 203 206 208 208 209 210 210 210 209 208 207 207 207 207 207 207 207 208 209 211 212 215 219 222 223 224 224 224 223 222 221 221 222 223 225 227 227 228 227 227 227 227 227
170 174 177 177 173 171 176 183 187 188 188 187 183 179 176 176 178 181 184 185 185 185 186 185 186 190 192 191 189 188 187 185 181 178 177 181 186 189 192 196 200 202 204 207 209 211 212 213 214 214 214 213 211 211 211 212 212 212 212 212 212 213 214 216 217 219 221 223 224 224 222 221 220 220 220 221 223 224 226 227 228 228 228 228 228 228
176 179 183 186 185 183 185 189 190 191 191 189 185 181 181 181 182 184 188 188 186 186 185 185 186 191 195 196 194 192 191 190 186 181 177 178 187 194 194 198 202 205 207 211 213 214 214 215 217 219 219 218 218 218 218 219 219 219 218 218 217 217 217 218 218 219 221 222 223 222 220 220 220 220 221 222 223 224 226 227 228 228 229 229 229 229
187 186 188 190 192 194 195 194 193 192 193 194 193 192 192 191 190 190 190 189 187 184 184 186 188 188 189 191 193 194 195 195 194 190 183 178 189 197 197 199 202 206 210 214 216 217 216 217 219 221 222 223 223 224 224 225 224 223 222 220 219 219 219 219 219 220 221 221 220 220 220 220 220 220 221 222 224 225 226 227 228 228 229 229 230 230
198 197 195 195 197 199 201 199 196 195 196 197 198 199 200 200 199 198 197 193 189 186 186 187 186 183 183 185 187 190 195 197 198 196 191 188 194 200 200 201 202 206 211 217 219 219 218 218 220 222 224 224 225 226 227 226 225 222 220 218 218 218 219 219 219 220 219 220 220 220 220 220 221 221 222 224 225 226 227 228 229 229 229 230 230 230
202 204 204 202 202 204 206 205 201 199 198 198 197 197 197 196 196 195 193 191 188 187 186 182 176 173 179 184 185 189 195 198 199 199 197 195 198 203 205 204 204 206 211 217 221 221 220 219 221 223 224 225 225 226 226 224 221 218 216 216 217 218 219 219 220 219 219 220 220 221 220 220 221 222 223 225 226 228 229 229 230 230 231 231 232 231
201 202 202 204 205 207 209 210 207 205 202 199 197 195 193 190 187 184 182 182 183 182 179 173 171 175 181 182 184 188 193 197 200 201 200 199 198 202 207 207 207 208 210 216 221 222 221 220 221 223 224 225 225 225 224 221 218 215 214 216 218 219 220 220 221 221 221 221 221 221 221 220 221 222 224 226 228 229 230 231 231 232 232 233 233 233
195 197 198 199 202 205 207 208 207 206 204 203 201 199 196 191 184 176 173 178 183 182 176 174 177 182 184 184 186 189 193 195 197 200 202 201 199 201 206 208 208 208 210 215 221 223 223 223 224 225 225 226 226 225 223 220 216 214 214 217 219 221 222 222 222 222 222 223 222 222 221 221 221 222 224 226 228 230 230 231 232 233 234 234 235 235
181 187 191 193 196 199 201 203 203 203 203 203 203 204 202 196 184 176 177 184 187 185 180 182 183 183 185 186 190 193 194 195 196 198 200 201 203 205 206 208 207 206 208 213 221 225 226 226 227 228 228 227 226 226 224 221 217 215 215 218 220 222 224 225 224 224 223 223 222 222 221 221 221 222 224 226 228 229 230 230 231 232 234 235 235 236
167 174 180 185 189 192 194 196 197 199 200 201 203 205 207 203 195 189 190 193 190 185 184 188 189 187 182 181 187 194 197 198 198 198 199 199 204 209 208 206 204 203 204 209 218 226 228 229 230 230 230 229 227 226 225 222 220 218 217 219 221 224 226 226 225 224 223 223 222 221 221 221 221 222 223 224 226 228 229 229 230 231 233 234 235 236
165 169 173 177 182 185 188 189 190 193 196 199 202 204 208 209 208 205 204 201 194 187 186 189 190 185 173 163 166 187 204 207 204 201 199 199 202 207 208 204 202 202 201 201 207 223 232 234 234 233 232 230 228 226 225 223 222 221 220 221 223 224 226 226 225 224 223 222 221 220 220 220 221 222 222 223 225 227 228 228 228 229 232 234 235 236
169 172 174 176 178 181 184 185 185 186 189 193 198 202 205 208 210 211 212 208 201 195 192 191 189 185 176 163 154 176 209 212 209 205 202 200 202 208 208 203 202 203 204 198 188 178 241 240 235 233 232 230 228 227 225 223 222 222 223 223 224 224 224 224 223 222 222 221 220 220 219 220 221 222 223 224 225 226 227 227 227 229 233 234 235 236
171 173 175 177 178 180 181 182 182 182 184 188 193 198 202 205 207 210 213 214 210 205 199 195 193 191 189 187 188 191 201 210 211 209 207 202 204 210 213 208 203 203 206 204 200 192 194 228 227 225 226 226 226 226 225 223 222 222 223 225 224 223 222 219 218 219 220 220 220 220 220 221 222 222 223 223 224 225 226 226 226 229 233 235 236 237
170 172 174 177 179 179 180 181 182 182 184 187 192 196 200 203 206 209 213 217 217 213 206 201 197 196 197 198 199 200 207 213 215 213 210 205 204 208 214 212 207 203 204 204 206 209 218 227 223 220 221 222 223 223 223 222 221 221 222 224 224 223 220 216 214 215 216 217 218 219 221 222 222 223 223 224 224 225 225 225 225 228 234 237 238 239
166 168 171 173 175 177 179 181 182 182 184 187 191 195 199 201 204 207 211 215 217 216 212 208 204 200 198 197 199 204 213 221 223 218 212 207 205 207 212 212 208 204 201 202 205 210 228 235 226 217 222 222 222 222 221 221 220 220 221 222 223 221 218 215 212 212 213 214 215 217 218 220 221 222 223 224 224 224 224 224 224 228 234 238 240 241
163 165 168 170 173 176 178 179 180 181 182 185 190 195 199 201 203 205 208 211 213 214 213 213 212 211 209 204 202 205 213 223 226 222 213 208 207 208 211 212 211 207 202 203 205 209 222 229 225 216 211 214 219 221 220 219 218 219 219 221 221 220 217 215 212 211 211 213 214 216 217 218 219 220 221 222 223 224 224 224 223 225 233 238 241 242
161 162 166 169 171 173 175 176 177 178 180 184 189 194 198 201 203 204 206 208 211 211 211 211 213 216 217 216 214 214 219 227 231 228 219 211 210 210 211 214 215 213 206 205 206 208 214 220 221 217 205 196 206 216 219 217 216 215 216 217 218 218 217 215 214 213 213 214 216 218 219 220 219 219 219 221 222 223 223 224 222 222 227 236 241 244
160 161 164 168 170 172 172 175 177 178 180 183 188 192 197 200 202 204 206 208 210 210 210 210 211 213 215 218 219 221 225 230 233 232 226 217 213 213 215 218 221 219 212 207 206 207 209 212 212 208 203 193 193 204 211 213 213 211 212 213 214 215 215 215 215 215 215 216 218 221 222 222 221 220 219 220 222 222 221 222 221 219 221 230 238 245
158 159 163 167 171 173 174 176 178 180 182 184 187 191 194 198 201 203 205 207 209 211 211 211 212 213 214 216 217 218 220 222 224 225 222 216 214 215 218 221 223 223 220 215 210 207 204 204 199 195 198 204 207 206 206 207 207 207 209 211 212 213 214 214 215 216 217 218 221 223 225 225 224 221 220 220 221 221 221 221 221 220 219 222 230 240
159 160 163 168 173 177 180 180 181 183 185 187 188 190 192 195 198 201 203 205 207 210 211 212 212 214 215 216 216 216 215 214 212 210 208 210 214 218 220 221 222 223 223 221 216 210 205 203 201 198 200 208 215 214 210 206 205 205 207 208 211 213 214 214 215 216 218 219 222 225 227 227 226 223 220 221 222 223 222 223 224 224 223 223 227 233
161 162 164 169 175 182 186 186 186 186 186 186 187 189 190 191 193 195 199 201 204 206 208 210 212 214 215 214 213 212 210 207 203 199 200 208 217 221 223 222 222 222 221 218 214 211 208 206 206 208 209 211 212 211 210 206 206 205 204 204 208 212 214 215 216 217 218 220 223 226 228 229 227 225 223 222 224 226 227 228 230 231 233 233 233 234
164 165 167 172 177 183 186 187 187 186 186 186 186 186 188 189 189 189 190 193 196 199 203 205 207 207 206 207 207 207 205 202 198 195 200 211 219 222 223 222 223 222 219 214 211 210 209 207 208 211 213 215 217 216 213 208 206 205 204 203 206 212 214 216 216 217 219 222 225 227 229 230 230 228 226 225 226 228 231 233 235 237 241 243 243 243
166 167 170 174 177 181 183 182 182 182 184 185 185 185 188 190 190 188 186 186 187 190 194 195 195 194 193 194 196 198 198 197 197 200 207 215 219 220 220 220 220 220 217 212 209 208 209 209 210 211 213 216 218 219 214 209 208 208 207 206 208 212 216 218 219 220 221 223 226 228 230 231 231 230 228 227 227 229 232 234 237 240 243 245 247 248
169 170 172 173 175 176 177 176 176 177 179 182 183 185 189 192 193 192 189 186 185 186 187 188 189 188 187 186 188 191 193 195 198 203 209 212 213 214 216 216 217 217 215 211 207 207 208 210 211 212 214 215 219 221 215 207 206 208 210 210 207 203 207 217 220 221 223 225 227 229 231 232 232 232 230 229 229 230 232 234 237 240 243 245 247 248
169 170 171 170 171 173 174 172 172 173 176 178 179 181 184 189 192 192 190 188 186 185 185 185 187 188 188 189 190 191 193 195 199 204 206 206 204 205 207 210 212 213 213 211 208 205 206 207 209 211 214 216 219 222 224 224 219 215 213 214 210 207 207 213 218 220 223 225 228 229 231 232 233 232 231 230 230 231 233 235 238 240 242 244 246 246
170 169 167 167 168 169 168 169 170 172 174 177 177 177 178 182 186 189 190 188 186 185 185 185 185 184 183 187 190 192 194 197 199 202 204 202 198 196 198 201 205 207 210 212 212 210 207 206 208 211 214 217 220 222 225 229 231 228 222 221 219 217 219 223 224 222 223 225 226 228 230 231 231 231 230 230 231 232 233 235 237 240 242 244 245 246
170 168 168 169 169 169 169 170 171 172 175 177 177 177 177 179 183 187 190 190 187 184 184 185 185 183 183 186 188 189 189 190 192 195 198 199 197 194 194 196 199 203 206 209 212 215 216 215 214 215 216 219 222 224 226 229 232 232 229 227 225 224 224 227 229 229 229 229 228 228 229 230 230 230 229 230 232 233 234 235 237 239 241 243 244 246
170 170 170 171 171 171 171 172 174 175 176 178 179 179 179 181 183 186 189 190 188 184 181 183 186 189 190 190 189 187 185 184 186 190 193 194 195 195 196 197 198 202 207 210 212 214 218 222 223 223 222 223 224 225 227 229 232 233 234 235 234 232 229 231 233 234 235 235 234 233 231 230 229 229 230 232 233 234 235 236 237 239 241 243 245 247
173 173 174 174 173 173 174 176 178 179 180 180 180 180 181 183 185 188 189 189 189 185 181 181 184 190 194 193 192 191 189 188 188 190 192 192 193 195 197 198 201 203 207 210 214 217 220 222 225 226 226 227 227 228 228 230 232 234 237 240 241 240 239 239 239 239 238 238 239 238 235 232 231 230 231 233 234 236 237 238 238 239 241 243 246 249
177 176 176 177 177 177 178 180 183 185 185 184 182 181 183 185 188 189 190 190 189 186 185 184 186 190 193 193 192 192 193 194 194 194 194 194 194 195 197 198 201 203 206 209 213 217 221 226 230 231 230 231 231 232 233 233 233 235 237 241 244 246 247 246 245 243 241 240 240 240 239 237 237 236 235 233 234 237 240 241 241 242 243 245 247 250
181 181 181 181 182 182 183 185 187 189 190 189 186 184 185 187 190 191 191 191 190 189 189 190 191 192 193 192 191 192 193 196 197 197 197 198 198 197 197 198 199 201 202 204 208 214 220 228 234 238 238 236 236 236 236 236 237 237 238 241 243 246 247 248 248 246 243 241 240 240 239 238 238 238 236 235 236 239 242 244 245 245 246 246 248 250
186 187 188 188 188 188 189 190 192 193 193 192 191 189 189 189 191 192 193 193 193 192 193 195 197 197 195 194 193 194 197 200 201 200 200 201 200 199 199 200 199 198 195 194 197 205 212 221 236 243 242 241 239 239 238 239 240 239 238 240 242 244 245 246 247 246 245 242 241 240 239 237 236 235 234 234 234 237 241 245 247 248 248 247 248 250